Participated 1 time
in 1932
Jean-Pierre Muller, Luxembourg
Tour de France 2026 starts from Edinburgh, Scotland in

Stats and Facts from
Tour de France.

2026   2025   2024   2023  2022  2021  2020  2019   2018  2017   2016   2015  2014  2013   2012   2011  2010   2009   2008   2007   2006   2005   2004   2003   2002   2001   2000   1999   1998   1997  1996   1995   1994   1993   1992  1991   1990   1989   1988   1987   1986   1985   1984   1983  1982  1981   1980   1979  1978  1977   1976  1975  1974  1973   1972   1971   1970  1969   1968   1967   1966   1965  1964  1963   1962   1961   1960   1959   1958   1957  1956   1955   1954   1953   1952  1951  1950  1949   1948  1947  1939   1938   1937   1936   1935   1934   1933  1932   1931   1930  1929   1928   1927   1926  1925  1924  1923   1922   1921   1920   1919  1914   1913   1912   1911   1910  1909   1908   1907   1906  1905  1904   1903 

Tourstats
Sitemap

After stage 21 - 2026:
 16451 starters.
  5513 different riders.
  689 teams.
  2419 stages.
  470 restdays.
  469752.50 km.
  5946 abandoned riders.

Click map for 1995 route.
Facts from Tour de France 1995
  |   Stages.  |   Stage winners.  |   Days in jerseys.  |   Teams.  |   All riders.  |   All riders by age.  |   All riders from.  |  

  |   Rookies.  |   Withdrawls.  |   Average speed.  |   GC.  |   Polka  |   Green  |   White  |   Summits. (In tour)  |   Miscellaneous.  |  

Stage 11 on July 13th. 1995
Pick a stage:  Pro  1  2  3  4  5  6  7  8  9  10  11  12  13  14  15  17  18  19  20  

After stage 11:    Miguel Indurain  
  Bourg-d´OisansSaint-Étienne | Dist: 199.00km. | Winner: Maximilian Sciandri

Podium
2  Côte de Forteresse Hernán Buenahoraafter39.00 km.

4  Côte de Cage Hernán Buenahoraafter115.00 km.

1  Col de l'Oeillon Hernán Buenahoraafter168.00 km.


Average speed for all riders in stage:  40,354 km./hr.

1
 Maximilian Sciandri  MG Maglificio-Technogym04h 43' 15"=42,154  km/h

2
 Hernán Buenahora  Kelme-Avianca04h 43' 15"=42,154  km/h

3
 Rolf Aldag  Telecom-ZG-Selle Italia04h 46' 03"+  00:02:48 =41,741  km/h

4  Andrea Tafi  Mapei-GP04h 46' 03"+  00:02:48 =41,741  km/h

5  Erik Breukink  O.N.C.E.04h 46' 05"+  00:02:50 =41,736  km/h

6  Armand De Las Cuevas  Castorama04h 48' 46"+  00:05:31 =41,348  km/h

7  Laurent Jalabert  O.N.C.E.04h 49' 07"+  00:05:52 =41,298  km/h

8  Djamolidine Abduzhaparov  Novell04h 49' 07"+  00:05:52 =41,298  km/h

9  Viatcheslav Ekimov  Novell04h 49' 07"+  00:05:52 =41,298  km/h

10  Vladimir Pulnikov  Telecom-ZG-Selle Italia04h 49' 07"+  00:05:52 =41,298  km/h

11  Gabriele Colombo  Gewiss-Ballan04h 49' 07"+  00:05:52 =41,298  km/h

12  Gilles Bouvard  Chazal-MBK-Konig04h 49' 07"+  00:05:52 =41,298  km/h

13  Claudio Chiappucci  Carrera Jeans-Tassoni04h 49' 07"+  00:05:52 =41,298  km/h

14  Bjarne Riis  Gewiss-Ballan04h 49' 07"+  00:05:52 =41,298  km/h

15  Yvon Ledanois  Gan04h 49' 07"+  00:05:52 =41,298  km/h

16  Paolo Lanfranchi  Brescialat04h 49' 07"+  00:05:52 =41,298  km/h

17  Herminio Diaz Zabala  O.N.C.E.04h 49' 07"+  00:05:52 =41,298  km/h

18  Erik Dekker  Novell04h 49' 07"+  00:05:52 =41,298  km/h

19  Melchor Mauri  O.N.C.E.04h 49' 07"+  00:05:52 =41,298  km/h

20  Massimiliano Lelli  Mercatone Uno-Saeco04h 49' 07"+  00:05:52 =41,298  km/h

21  Tony Rominger  Mapei-GP04h 49' 07"+  00:05:52 =41,298  km/h

22  Miguel Indurain  Banesto04h 49' 07"+  00:05:52 =41,298  km/h

23  Udo Bölts  Telecom-ZG-Selle Italia04h 49' 07"+  00:05:52 =41,298  km/h

24  Richard Virenque  Festina04h 49' 07"+  00:05:52 =41,298  km/h

25  Maarten Den Bakker  TVM-Polis Direct04h 49' 07"+  00:05:52 =41,298  km/h

26  Arsenio González  Mapei-GP04h 49' 07"+  00:05:52 =41,298  km/h

27  Marco Pantani  Carrera Jeans-Tassoni04h 49' 07"+  00:05:52 =41,298  km/h

28  Álvaro Mejía  Motorola04h 49' 07"+  00:05:52 =41,298  km/h

29  Johan Bruyneel  O.N.C.E.04h 49' 07"+  00:05:52 =41,298  km/h

30  Mariano Rojas  O.N.C.E.04h 49' 07"+  00:05:52 =41,298  km/h

31  Zenon Jaskuła  Aki-Gipiemme04h 49' 07"+  00:05:52 =41,298  km/h

32  Ivan Gotti  Gewiss-Ballan04h 49' 07"+  00:05:52 =41,298  km/h

33  Massimo Podenzana  Brescialat04h 49' 07"+  00:05:52 =41,298  km/h

34  Eddy Bouwmans  Novell04h 49' 07"+  00:05:52 =41,298  km/h

35  Beat Zberg  Carrera Jeans-Tassoni04h 49' 07"+  00:05:52 =41,298  km/h

36  Laurent Dufaux  Festina04h 49' 07"+  00:05:52 =41,298  km/h

37  Laurent Madouas  Castorama04h 49' 07"+  00:05:52 =41,298  km/h

38  Alex Zülle  O.N.C.E.04h 49' 07"+  00:05:52 =41,298  km/h

39  Bo Hamburger  TVM-Polis Direct04h 49' 07"+  00:05:52 =41,298  km/h

40  Fernando Escartin  Mapei-GP04h 49' 07"+  00:05:52 =41,298  km/h

41  Oscar Pelliccioli  Polti04h 49' 07"+  00:05:52 =41,298  km/h

42  Vicente Aparicio  Banesto04h 49' 07"+  00:05:52 =41,298  km/h

43  Bruno Cenghialta  Gewiss-Ballan04h 49' 07"+  00:05:52 =41,298  km/h

44  Gérard Rué  Banesto04h 49' 07"+  00:05:52 =41,298  km/h

45  Ramon Gonzalez  Banesto04h 49' 07"+  00:05:52 =41,298  km/h

46  Alberto Elli  MG Maglificio-Technogym04h 49' 07"+  00:05:52 =41,298  km/h

47  Leonardo Sierra  Carrera Jeans-Tassoni04h 49' 07"+  00:05:52 =41,298  km/h

48  Pavel Tonkov  Lampre-Panaria04h 49' 07"+  00:05:52 =41,298  km/h

49  Jean-Cyril Robin  Festina04h 49' 07"+  00:05:52 =41,298  km/h

50  Bruno Thibout  Castorama04h 49' 07"+  00:05:52 =41,298  km/h

51  Laudelino Cubino  Kelme-Avianca04h 49' 07"+  00:05:52 =41,298  km/h

52  Federico Muñoz  Kelme-Avianca04h 49' 07"+  00:05:52 =41,298  km/h

53  Enrico Zaina  Carrera Jeans-Tassoni04h 49' 07"+  00:05:52 =41,298  km/h

54  Francis Moreau  Gan04h 53' 08"+  00:09:53 =40,732  km/h

55  Didier Rous  Gan04h 53' 08"+  00:09:53 =40,732  km/h

56  Andrea Peron  Motorola04h 53' 08"+  00:09:53 =40,732  km/h

57  Franco Vona  MG Maglificio-Technogym04h 53' 08"+  00:09:53 =40,732  km/h

58  Dante Rezze  Aki-Gipiemme04h 53' 08"+  00:09:53 =40,732  km/h

59  Lance Armstrong  Motorola04h 53' 08"+  00:09:53 =40,732  km/h

60  Stefano Colagè  Telecom-ZG-Selle Italia04h 53' 08"+  00:09:53 =40,732  km/h

61  Andrea Ferrigato  Telecom-ZG-Selle Italia04h 53' 08"+  00:09:53 =40,732  km/h

62  Andrei Tchmil  Lotto-Isoglass04h 53' 08"+  00:09:53 =40,732  km/h

63  Neil Stephens  O.N.C.E.04h 53' 08"+  00:09:53 =40,732  km/h

64  Giancarlo Perini  Brescialat04h 53' 08"+  00:09:53 =40,732  km/h

65  Marcello Siboni  Carrera Jeans-Tassoni04h 53' 08"+  00:09:53 =40,732  km/h

66  Miguel Arroyo  Chazal-MBK-Konig04h 53' 08"+  00:09:53 =40,732  km/h

67  Jean-François Bernard  Chazal-MBK-Konig04h 53' 21"+  00:10:06 =40,702  km/h

68  Laurent Brochard  Festina04h 54' 03"+  00:10:48 =40,605  km/h

69  Stephen Hodge  Festina04h 54' 03"+  00:10:48 =40,605  km/h

70  Julio César Aguirre  Kelme-Avianca04h 54' 03"+  00:10:48 =40,605  km/h

71  Sean Yates  Motorola04h 54' 17"+  00:11:02 =40,573  km/h

72  Artūras Kasputis  Chazal-MBK-Konig04h 57' 44"+  00:14:29 =40,103  km/h

73  Dimitri Konychev  Aki-Gipiemme04h 57' 44"+  00:14:29 =40,103  km/h

74  Gianluca Bortolami  Mapei-GP04h 57' 44"+  00:14:29 =40,103  km/h

75  Mauro Bettin  Aki-Gipiemme04h 57' 44"+  00:14:29 =40,103  km/h

76  Arvis Piziks  Novell04h 57' 44"+  00:14:29 =40,103  km/h

77  Jean-Pierre Bourgeot  Chazal-MBK-Konig04h 57' 44"+  00:14:29 =40,103  km/h

78  François Lemarchand  Gan04h 57' 44"+  00:14:29 =40,103  km/h

79  José Angel Vidal  Kelme-Avianca04h 57' 44"+  00:14:29 =40,103  km/h

80  Jim Van De Laer  TVM-Polis Direct04h 57' 44"+  00:14:29 =40,103  km/h

81  Angelo Lecchi  Brescialat04h 57' 44"+  00:14:29 =40,103  km/h

82  Wladimir Belli  Lampre-Panaria04h 57' 44"+  00:14:29 =40,103  km/h

83  Fabian Jeker  Festina04h 57' 44"+  00:14:29 =40,103  km/h

84  Alessio Galletti  Lampre-Panaria04h 57' 44"+  00:14:29 =40,103  km/h

85  Massimo Donati  Mercatone Uno-Saeco04h 57' 44"+  00:14:29 =40,103  km/h

86  Rolf Järmann  MG Maglificio-Technogym04h 57' 44"+  00:14:29 =40,103  km/h

87  Frans Maassen  Novell04h 57' 44"+  00:14:29 =40,103  km/h

88  Erik Zabel  Telecom-ZG-Selle Italia05h 01' 31"+  00:18:16 =39,600  km/h

89  Gilles Talmant  Castorama05h 01' 31"+  00:18:16 =39,600  km/h

90  Dario Bottaro  Gewiss-Ballan05h 01' 31"+  00:18:16 =39,600  km/h

91  Davide Perona  Lampre-Panaria05h 01' 31"+  00:18:16 =39,600  km/h

92  Francesco Frattini  Gewiss-Ballan05h 01' 31"+  00:18:16 =39,600  km/h

93  Éric Boyer  Polti05h 01' 31"+  00:18:16 =39,600  km/h

94  Guido Bontempi  Gewiss-Ballan05h 01' 31"+  00:18:16 =39,600  km/h

95  Marino Alonso  Banesto05h 01' 31"+  00:18:16 =39,600  km/h

96  Jens Heppner  Telecom-ZG-Selle Italia05h 01' 31"+  00:18:16 =39,600  km/h

97  Carmelo Miranda  Banesto05h 01' 31"+  00:18:16 =39,600  km/h

98  José Ramon Uriarte  Banesto05h 01' 31"+  00:18:16 =39,600  km/h

99  Steve Bauer  Motorola05h 01' 31"+  00:18:16 =39,600  km/h

100  Thomas Davy  Banesto05h 01' 31"+  00:18:16 =39,600  km/h

101  Marco Milesi  Brescialat05h 01' 50"+  00:18:35 =39,558  km/h

102  Thierry Marie  Castorama05h 03' 48"+  00:20:33 =39,302  km/h

103  Christophe Capelle  Gan05h 03' 48"+  00:20:33 =39,302  km/h

104  Nicola Loda  MG Maglificio-Technogym05h 03' 48"+  00:20:33 =39,302  km/h

105  Giovanni Fidanza  Polti05h 03' 48"+  00:20:33 =39,302  km/h

106  Rossano Brasi  Polti05h 03' 48"+  00:20:33 =39,302  km/h

107  Frédéric Moncassin  Novell05h 03' 48"+  00:20:33 =39,302  km/h

108  Bruno Cornillet  Chazal-MBK-Konig05h 03' 48"+  00:20:33 =39,302  km/h

109  Thierry Laurent  Castorama05h 03' 48"+  00:20:33 =39,302  km/h

110  Alexander Gontchenkov  Lampre-Panaria05h 03' 48"+  00:20:33 =39,302  km/h

111  Dirk Baldinger  Polti05h 03' 48"+  00:20:33 =39,302  km/h

112  Gian Matteo Fagnini  Mercatone Uno-Saeco05h 03' 48"+  00:20:33 =39,302  km/h

113  Wilfried Peeters  Mapei-GP05h 03' 48"+  00:20:33 =39,302  km/h

114  Leon van Bon  Novell05h 03' 48"+  00:20:33 =39,302  km/h

115  Davide Cassani  MG Maglificio-Technogym05h 03' 48"+  00:20:33 =39,302  km/h

116  Gianni Bugno  MG Maglificio-Technogym05h 03' 48"+  00:20:33 =39,302  km/h

117  Fabio Casartelli  Motorola05h 03' 48"+  00:20:33 =39,302  km/h

118  Eros Poli  Mercatone Uno-Saeco05h 03' 48"+  00:20:33 =39,302  km/h

119  Peter Farazijn  Lotto-Isoglass05h 03' 48"+  00:20:33 =39,302  km/h

120  Jesper Skibby  TVM-Polis Direct05h 03' 48"+  00:20:33 =39,302  km/h

121  Bruno Boscardin  Festina05h 03' 48"+  00:20:33 =39,302  km/h

122  Bart Voskamp  TVM-Polis Direct05h 03' 48"+  00:20:33 =39,302  km/h

123  Alberto Volpi  Gewiss-Ballan05h 03' 48"+  00:20:33 =39,302  km/h

124  Sergio Barbero  Carrera Jeans-Tassoni05h 03' 48"+  00:20:33 =39,302  km/h

125  François Simon  Castorama05h 03' 48"+  00:20:33 =39,302  km/h

126  Héctor Castaño  Kelme-Avianca05h 03' 48"+  00:20:33 =39,302  km/h

127  Tristan Hoffman  TVM-Polis Direct05h 03' 48"+  00:20:33 =39,302  km/h

128  Giovanni Lombardi  Polti05h 03' 48"+  00:20:33 =39,302  km/h

129  Frankie Andreu  Motorola05h 03' 48"+  00:20:33 =39,302  km/h

130  Marco Serpellini  Lampre-Panaria05h 03' 48"+  00:20:33 =39,302  km/h

131  Serguei Utchakov  Polti05h 03' 48"+  00:20:33 =39,302  km/h

132  Aitor Garmendia  Banesto05h 03' 48"+  00:20:33 =39,302  km/h

133  Gilles Delion  Chazal-MBK-Konig05h 03' 48"+  00:20:33 =39,302  km/h

134  Georg Totschnig  Polti05h 03' 48"+  00:20:33 =39,302  km/h

135  Gilberto Simoni  Aki-Gipiemme05h 03' 48"+  00:20:33 =39,302  km/h

136  Ángel Camargo  Kelme-Avianca05h 03' 48"+  00:20:33 =39,302  km/h

137  Johan Museeuw  Mapei-GP05h 03' 48"+  00:20:33 =39,302  km/h

138  Flavio Vanzella  MG Maglificio-Technogym05h 03' 48"+  00:20:33 =39,302  km/h

139  Mario Scirea  Polti05h 03' 48"+  00:20:33 =39,302  km/h

140  Gianluca Gorini  Aki-Gipiemme05h 03' 48"+  00:20:33 =39,302  km/h

141  Stephen Swart  Motorola05h 03' 48"+  00:20:33 =39,302  km/h


Withdrawls: 2
 RiderTeamReason
39   Denis Zanette Aki-GipiemmeDid not finish
198   Mauro Radaelli BrescialatDid not finish
Todays birthdays.

1888 • Achille Serroen
1889 • Francois Magatti
1891 • Guglielmo Ceccherelli
1895 • Jules Dubois
1903 • Julien Delbecque
1915 • Emile Masson jr.
1922 • Maurice Lauze
1923 • Franco Franchi
1932 • Kurt Schneider
1940 • Franco Bitossi
1948 • Juan Zurano
1949 • Richard Pianaro
1954 • Alain Vigneron
1969 • Andrea Ferrigato
1975 • Dario Pieri
1978 • Rubén Lobato
1983 • Riccardo Riccò
1994 • Oliviero Troia
1996 • Eddie Dunbar

 

Optimized for Chrome - Edge
and Opera browsers.